QPF
0.00 0.00 0.00 0.00 0.00 0.00 0.00 0.00 0.00 0.01 0.01 0.01 0.01 0.02 0.02 0.03 0.03 0.02 0.02 0.02 0.05 0.09 0.17 0.33 0.49 0.36 0.37 0.39 0.42 0.36 0.30 0.21 0.13 0.07 0.04 0.03 0.02 0.01 0.01 0.01 0.00 0.00 0.00 0.00
0.00 0.00 0.00 0.00 0.00 0.00 0.00 0.00 0.00 0.00 0.01 0.01 0.02 0.02 0.03 0.03 0.04 0.02 0.01 0.01 0.02 0.06 0.15 0.35 0.46 0.34 0.29 0.28 0.29 0.29 0.25 0.19 0.10 0.06 0.04 0.02 0.01 0.01 0.01 0.01 0.00 0.00 0.00 0.00
0.00 0.00 0.00 0.00 0.00 0.00 0.00 0.00 0.00 0.00 0.00 0.02 0.03 0.04 0.06 0.04 0.03 0.02 0.02 0.01 0.01 0.03 0.06 0.15 0.24 0.30 0.27 0.24 0.20 0.20 0.18 0.16 0.10 0.06 0.03 0.02 0.01 0.01 0.01 0.00 0.00 0.00 0.00 0.00
0.00 0.00 0.00 0.00 0.00 0.00 0.00 0.00 0.00 0.00 0.00 0.02 0.05 0.04 0.06 0.05 0.04 0.03 0.02 0.02 0.01 0.02 0.03 0.06 0.11 0.19 0.25 0.28 0.22 0.19 0.16 0.14 0.10 0.05 0.03 0.02 0.01 0.01 0.01 0.00 0.00 0.00 0.00 0.00
0.00 0.00 0.00 0.00 0.00 0.00 0.00 0.00 0.00 0.00 0.02 0.06 0.09 0.10 0.09 0.07 0.06 0.04 0.02 0.02 0.02 0.02 0.04 0.07 0.09 0.11 0.18 0.24 0.22 0.18 0.15 0.16 0.12 0.05 0.02 0.03 0.02 0.01 0.00 0.00 0.00 0.00 0.00 0.00
0.00 0.00 0.00 0.00 0.00 0.00 0.00 0.00 0.00 0.01 0.05 0.11 0.14 0.14 0.18 0.15 0.07 0.03 0.03 0.01 0.02 0.03 0.05 0.11 0.13 0.12 0.15 0.22 0.18 0.16 0.14 0.13 0.11 0.06 0.03 0.02 0.02 0.01 0.00 0.00 0.00 0.00 0.00 0.00
0.00 0.00 0.00 0.00 0.00 0.00 0.00 0.00 0.00 0.01 0.04 0.10 0.12 0.16 0.22 0.14 0.05 0.03 0.02 0.01 0.02 0.03 0.05 0.07 0.07 0.06 0.08 0.14 0.13 0.12 0.12 0.10 0.07 0.05 0.04 0.03 0.01 0.01 0.01 0.00 0.00 0.00 0.00 0.00
0.00 0.00 0.00 0.00 0.01 0.01 0.01 0.00 0.01 0.02 0.03 0.07 0.12 0.21 0.21 0.09 0.03 0.03 0.02 0.01 0.02 0.03 0.03 0.02 0.03 0.02 0.04 0.09 0.10 0.09 0.11 0.08 0.05 0.03 0.03 0.03 0.02 0.01 0.00 0.00 0.00 0.00 0.00 0.00
0.00 0.00 0.00 0.00 0.00 0.01 0.01 0.01 0.01 0.01 0.01 0.06 0.12 0.14 0.11 0.05 0.02 0.04 0.03 0.02 0.01 0.01 0.01 0.01 0.02 0.01 0.02 0.03 0.04 0.04 0.06 0.06 0.04 0.02 0.02 0.02 0.01 0.01 0.01 0.00 0.00 0.00 0.00 0.00
0.00 0.00 0.00 0.00 0.00 0.01 0.02 0.01 0.01 0.01 0.02 0.05 0.09 0.13 0.10 0.07 0.03 0.04 0.04 0.02 0.01 0.01 0.01 0.01 0.01 0.01 0.01 0.01 0.02 0.02 0.02 0.02 0.02 0.01 0.01 0.01 0.01 0.01 0.01 0.00 0.00 0.00 0.00 0.00
0.00 0.00 0.00 0.00 0.00 0.01 0.02 0.02 0.02 0.02 0.02 0.05 0.09 0.10 0.08 0.08 0.07 0.08 0.05 0.02 0.01 0.01 0.01 0.01 0.00 0.00 0.01 0.01 0.01 0.01 0.01 0.01 0.01 0.01 0.01 0.01 0.01 0.01 0.01 0.01 0.01 0.00 0.00 0.00
0.00 0.00 0.00 0.00 0.00 0.01 0.02 0.03 0.03 0.03 0.03 0.04 0.05 0.06 0.06 0.06 0.09 0.16 0.09 0.03 0.02 0.03 0.03 0.03 0.02 0.01 0.00 0.01 0.01 0.00 0.01 0.01 0.01 0.01 0.01 0.01 0.01 0.02 0.02 0.02 0.01 0.01 0.01 0.01
0.01 0.00 0.00 0.00 0.01 0.02 0.03 0.03 0.03 0.03 0.02 0.02 0.04 0.05 0.06 0.05 0.05 0.08 0.07 0.04 0.02 0.03 0.03 0.03 0.03 0.03 0.01 0.01 0.01 0.00 0.01 0.01 0.02 0.03 0.03 0.03 0.03 0.02 0.02 0.02 0.03 0.03 0.02 0.02
0.01 0.01 0.01 0.01 0.01 0.03 0.04 0.03 0.02 0.01 0.01 0.01 0.02 0.04 0.04 0.04 0.04 0.05 0.05 0.03 0.01 0.02 0.02 0.02 0.03 0.03 0.05 0.06 0.05 0.04 0.04 0.04 0.06 0.06 0.06 0.05 0.05 0.04 0.03 0.04 0.05 0.04 0.03 0.03
0.01 0.01 0.01 0.01 0.02 0.02 0.02 0.02 0.01 0.01 0.01 0.01 0.02 0.02 0.03 0.03 0.04 0.07 0.06 0.04 0.03 0.03 0.04 0.04 0.07 0.07 0.07 0.09 0.11 0.13 0.14 0.13 0.14 0.16 0.16 0.19 0.16 0.14 0.14 0.12 0.10 0.09 0.07 0.07
0.02 0.02 0.02 0.02 0.03 0.03 0.03 0.02 0.01 0.01 0.01 0.01 0.02 0.03 0.03 0.04 0.08 0.07 0.03 0.03 0.06 0.09 0.05 0.05 0.09 0.11 0.10 0.10 0.12 0.16 0.17 0.18 0.22 0.26 0.30 0.32 0.32 0.31 0.29 0.24 0.18 0.17 0.17 0.17
0.05 0.06 0.05 0.04 0.04 0.04 0.03 0.03 0.03 0.02 0.02 0.01 0.02 0.03 0.04 0.05 0.10 0.10 0.07 0.05 0.06 0.05 0.04 0.05 0.11 0.16 0.16 0.16 0.16 0.17 0.17 0.19 0.24 0.28 0.29 0.29 0.28 0.26 0.27 0.29 0.26 0.22 0.22 0.22
0.05 0.09 0.10 0.07 0.06 0.07 0.05 0.04 0.04 0.03 0.03 0.03 0.02 0.04 0.05 0.05 0.08 0.09 0.06 0.06 0.05 0.04 0.05 0.04 0.08 0.13 0.16 0.16 0.17 0.20 0.25 0.28 0.30 0.31 0.31 0.32 0.33 0.33 0.32 0.29 0.23 0.21 0.21 0.23
0.05 0.09 0.11 0.11 0.11 0.08 0.05 0.08 0.09 0.07 0.08 0.07 0.07 0.07 0.08 0.11 0.13 0.16 0.12 0.08 0.06 0.06 0.08 0.06 0.08 0.11 0.13 0.16 0.17 0.17 0.21 0.25 0.28 0.28 0.30 0.34 0.37 0.39 0.30 0.21 0.17 0.15 0.15 0.14
0.05 0.07 0.13 0.15 0.17 0.15 0.08 0.09 0.11 0.10 0.14 0.11 0.11 0.10 0.10 0.13 0.18 0.19 0.13 0.07 0.05 0.05 0.06 0.07 0.09 0.11 0.13 0.15 0.16 0.18 0.18 0.19 0.21 0.20 0.19 0.21 0.22 0.24 0.26 0.20 0.14 0.12 0.11 0.10
0.10 0.12 0.16 0.21 0.23 0.20 0.13 0.10 0.10 0.12 0.16 0.16 0.13 0.14 0.15 0.16 0.15 0.12 0.10 0.07 0.05 0.04 0.04 0.04 0.06 0.08 0.08 0.09 0.10 0.11 0.09 0.09 0.08 0.07 0.06 0.07 0.07 0.08 0.10 0.11 0.11 0.11 0.12 0.11
0.20 0.20 0.18 0.20 0.27 0.26 0.16 0.13 0.12 0.16 0.22 0.28 0.26 0.21 0.18 0.19 0.19 0.17 0.12 0.07 0.04 0.03 0.02 0.02 0.02 0.02 0.02 0.03 0.04 0.05 0.04 0.04 0.03 0.03 0.02 0.02 0.02 0.03 0.03 0.04 0.05 0.06 0.06 0.07
0.23 0.28 0.27 0.26 0.28 0.24 0.19 0.18 0.19 0.22 0.31 0.30 0.29 0.30 0.23 0.16 0.15 0.13 0.09 0.05 0.04 0.03 0.02 0.01 0.01 0.01 0.01 0.01 0.02 0.02 0.02 0.02 0.02 0.01 0.01 0.02 0.02 0.02 0.01 0.01 0.01 0.01 0.01 0.01
0.18 0.22 0.30 0.31 0.30 0.28 0.24 0.20 0.21 0.26 0.28 0.27 0.22 0.25 0.23 0.14 0.13 0.15 0.12 0.06 0.03 0.03 0.02 0.01 0.01 0.00 0.00 0.00 0.00 0.00 0.00 0.00 0.00 0.00 0.00 0.00 0.00 0.00 0.00 0.00 0.00 0.00 0.00 0.00
0.15 0.21 0.30 0.33 0.33 0.33 0.33 0.26 0.24 0.31 0.34 0.31 0.27 0.22 0.19 0.14 0.17 0.22 0.19 0.11 0.03 0.01 0.01 0.01 0.01 0.00 0.00 0.00 0.00 0.00 0.00 0.00 0.00 0.00 0.00 0.00 0.00 0.00 0.00 0.00 0.00 0.00 0.00 0.00
0.12 0.14 0.18 0.28 0.28 0.29 0.30 0.27 0.28 0.33 0.34 0.30 0.27 0.20 0.14 0.16 0.16 0.13 0.11 0.06 0.03 0.01 0.01 0.01 0.00 0.00 0.00 0.00 0.00 0.00 0.00 0.00 0.00 0.00 0.00 0.00 0.00 0.00 0.00 0.00 0.00 0.00 0.00 0.00
MSLP
1012.25 1012.68 1012.81 1012.68 1012.38 1012.04 1011.76 1011.62 1011.63 1011.75 1011.92 1012.04 1012.01 1011.80 1011.39 1010.85 1010.25 1009.72 1009.36 1009.24 1009.38 1009.77 1010.34 1010.99 1011.63 1012.18 1012.60 1012.89 1013.09 1013.27 1013.48 1013.79 1014.20 1014.71 1015.29 1015.86 1016.36 1016.74 1016.97 1017.05 1017.02 1016.93 1016.83 1016.78
1012.58 1012.86 1012.82 1012.54 1012.16 1011.81 1011.61 1011.61 1011.81 1012.13 1012.46 1012.67 1012.66 1012.39 1011.88 1011.18 1010.44 1009.80 1009.37 1009.23 1009.40 1009.85 1010.48 1011.18 1011.82 1012.34 1012.70 1012.90 1013.02 1013.12 1013.30 1013.61 1014.06 1014.64 1015.29 1015.93 1016.48 1016.89 1017.11 1017.17 1017.11 1016.99 1016.89 1016.85
1012.58 1012.70 1012.51 1012.12 1011.70 1011.41 1011.34 1011.54 1011.98 1012.52 1013.03 1013.35 1013.38 1013.06 1012.43 1011.59 1010.70 1009.92 1009.39 1009.21 1009.38 1009.85 1010.52 1011.25 1011.90 1012.39 1012.70 1012.84 1012.89 1012.94 1013.10 1013.41 1013.90 1014.54 1015.25 1015.94 1016.53 1016.95 1017.17 1017.22 1017.14 1017.01 1016.90 1016.88
1012.25 1012.22 1011.90 1011.46 1011.06 1010.88 1011.01 1011.47 1012.17 1012.97 1013.69 1014.14 1014.21 1013.86 1013.13 1012.14 1011.09 1010.16 1009.52 1009.27 1009.40 1009.87 1010.54 1011.27 1011.92 1012.40 1012.67 1012.76 1012.77 1012.78 1012.92 1013.23 1013.74 1014.41 1015.15 1015.88 1016.49 1016.93 1017.15 1017.19 1017.11 1016.98 1016.88 1016.88
1011.68 1011.51 1011.10 1010.65 1010.34 1010.33 1010.70 1011.44 1012.44 1013.51 1014.44 1015.04 1015.17 1014.79 1013.97 1012.85 1011.64 1010.58 1009.82 1009.46 1009.54 1009.97 1010.63 1011.35 1011.99 1012.44 1012.68 1012.74 1012.71 1012.70 1012.80 1013.10 1013.61 1014.28 1015.03 1015.77 1016.39 1016.83 1017.06 1017.11 1017.04 1016.92 1016.85 1016.88
1010.98 1010.69 1010.23 1009.81 1009.62 1009.81 1010.44 1011.47 1012.77 1014.10 1015.23 1015.96 1016.15 1015.76 1014.88 1013.65 1012.33 1011.14 1010.27 1009.83 1009.83 1010.21 1010.84 1011.53 1012.15 1012.58 1012.80 1012.83 1012.76 1012.71 1012.79 1013.05 1013.52 1014.17 1014.90 1015.62 1016.23 1016.67 1016.90 1016.97 1016.92 1016.85 1016.81 1016.87
1010.28 1009.89 1009.40 1009.04 1008.98 1009.37 1010.24 1011.53 1013.07 1014.62 1015.92 1016.76 1017.01 1016.63 1015.71 1014.43 1013.03 1011.76 1010.82 1010.30 1010.25 1010.58 1011.17 1011.83 1012.42 1012.82 1013.01 1013.01 1012.91 1012.83 1012.85 1013.07 1013.49 1014.08 1014.76 1015.44 1016.03 1016.45 1016.70 1016.78 1016.77 1016.74 1016.75 1016.85
1009.68 1009.20 1008.71 1008.40 1008.47 1009.01 1010.07 1011.54 1013.25 1014.93 1016.34 1017.25 1017.54 1017.19 1016.27 1014.99 1013.58 1012.30 1011.33 1010.79 1010.71 1011.01 1011.55 1012.18 1012.73 1013.11 1013.27 1013.25 1013.12 1012.99 1012.97 1013.13 1013.48 1014.00 1014.62 1015.24 1015.79 1016.19 1016.44 1016.55 1016.57 1016.58 1016.63 1016.78
1009.19 1008.66 1008.18 1007.93 1008.07 1008.72 1009.86 1011.42 1013.18 1014.90 1016.33 1017.26 1017.57 1017.24 1016.38 1015.15 1013.80 1012.58 1011.66 1011.15 1011.08 1011.36 1011.88 1012.47 1012.99 1013.34 1013.47 1013.43 1013.28 1013.12 1013.07 1013.17 1013.46 1013.91 1014.46 1015.02 1015.51 1015.89 1016.13 1016.25 1016.30 1016.35 1016.44 1016.62
1008.84 1008.29 1007.82 1007.60 1007.78 1008.45 1009.58 1011.09 1012.79 1014.43 1015.79 1016.67 1016.97 1016.68 1015.89 1014.78 1013.57 1012.48 1011.67 1011.25 1011.22 1011.52 1012.03 1012.59 1013.08 1013.39 1013.51 1013.46 1013.30 1013.14 1013.07 1013.15 1013.39 1013.79 1014.27 1014.77 1015.21 1015.55 1015.77 1015.89 1015.96 1016.02 1016.14 1016.35
1008.57 1008.05 1007.61 1007.42 1007.58 1008.18 1009.20 1010.56 1012.06 1013.52 1014.71 1015.48 1015.74 1015.49 1014.81 1013.86 1012.84 1011.94 1011.31 1011.02 1011.07 1011.41 1011.91 1012.44 1012.89 1013.19 1013.29 1013.25 1013.11 1012.98 1012.92 1013.01 1013.24 1013.60 1014.04 1014.49 1014.88 1015.18 1015.37 1015.47 1015.53 1015.60 1015.73 1015.95
1008.38 1007.93 1007.54 1007.35 1007.47 1007.95 1008.78 1009.88 1011.10 1012.28 1013.24 1013.85 1014.04 1013.81 1013.26 1012.50 1011.71 1011.05 1010.62 1010.48 1010.63 1011.01 1011.51 1012.02 1012.43 1012.70 1012.81 1012.79 1012.71 1012.63 1012.63 1012.76 1013.02 1013.38 1013.80 1014.21 1014.55 1014.81 1014.96 1015.03 1015.07 1015.13 1015.25 1015.46
1008.28 1007.93 1007.61 1007.43 1007.48 1007.80 1008.38 1009.18 1010.06 1010.91 1011.59 1012.00 1012.10 1011.89 1011.46 1010.90 1010.36 1009.93 1009.72 1009.74 1009.99 1010.41 1010.90 1011.37 1011.76 1012.01 1012.13 1012.16 1012.14 1012.15 1012.25 1012.45 1012.77 1013.16 1013.58 1013.97 1014.28 1014.49 1014.60 1014.63 1014.63 1014.66 1014.75 1014.95
1008.30 1008.08 1007.85 1007.68 1007.66 1007.80 1008.13 1008.59 1009.12 1009.62 1010.00 1010.20 1010.19 1010.01 1009.68 1009.32 1009.00 1008.81 1008.79 1008.96 1009.30 1009.74 1010.21 1010.65 1010.99 1011.23 1011.37 1011.45 1011.53 1011.65 1011.86 1012.17 1012.57 1013.01 1013.45 1013.84 1014.12 1014.29 1014.35 1014.34 1014.30 1014.29 1014.35 1014.51
1008.52 1008.43 1008.28 1008.13 1008.04 1008.02 1008.10 1008.25 1008.43 1008.59 1008.68 1008.68 1008.57 1008.39 1008.16 1007.97 1007.85 1007.86 1008.01 1008.31 1008.70 1009.15 1009.60 1009.99 1010.29 1010.52 1010.69 1010.83 1011.01 1011.25 1011.58 1012.01 1012.50 1013.00 1013.47 1013.86 1014.12 1014.26 1014.27 1014.22 1014.14 1014.10 1014.13 1014.26
1008.96 1008.98 1008.91 1008.77 1008.61 1008.45 1008.31 1008.18 1008.06 1007.92 1007.77 1007.59 1007.39 1007.20 1007.06 1007.00 1007.05 1007.23 1007.52 1007.90 1008.34 1008.78 1009.19 1009.54 1009.81 1010.03 1010.23 1010.44 1010.71 1011.06 1011.52 1012.05 1012.62 1013.18 1013.68 1014.06 1014.31 1014.41 1014.40 1014.31 1014.21 1014.14 1014.15 1014.27
1009.64 1009.73 1009.69 1009.56 1009.33 1009.05 1008.72 1008.37 1008.00 1007.63 1007.27 1006.95 1006.68 1006.50 1006.42 1006.47 1006.66 1006.96 1007.36 1007.81 1008.27 1008.71 1009.09 1009.40 1009.65 1009.87 1010.09 1010.37 1010.72 1011.17 1011.72 1012.34 1012.97 1013.56 1014.07 1014.44 1014.67 1014.75 1014.71 1014.61 1014.50 1014.43 1014.44 1014.56
1010.48 1010.57 1010.53 1010.36 1010.07 1009.68 1009.21 1008.68 1008.13 1007.59 1007.10 1006.68 1006.37 1006.20 1006.19 1006.34 1006.62 1007.03 1007.50 1008.01 1008.49 1008.93 1009.29 1009.59 1009.83 1010.06 1010.32 1010.65 1011.07 1011.59 1012.20 1012.86 1013.52 1014.12 1014.61 1014.96 1015.16 1015.22 1015.17 1015.07 1014.97 1014.92 1014.96 1015.10
1011.33 1011.37 1011.27 1011.04 1010.67 1010.19 1009.61 1008.97 1008.31 1007.66 1007.09 1006.63 1006.32 1006.18 1006.23 1006.46 1006.83 1007.32 1007.86 1008.42 1008.94 1009.39 1009.76 1010.06 1010.32 1010.58 1010.88 1011.25 1011.71 1012.27 1012.90 1013.57 1014.21 1014.78 1015.23 1015.54 1015.71 1015.74 1015.69 1015.60 1015.53 1015.52 1015.61 1015.79
1012.01 1011.94 1011.75 1011.43 1010.98 1010.43 1009.78 1009.07 1008.36 1007.68 1007.10 1006.64 1006.36 1006.28 1006.39 1006.70 1007.16 1007.72 1008.33 1008.94 1009.50 1009.99 1010.39 1010.73 1011.02 1011.32 1011.65 1012.06 1012.54 1013.10 1013.72 1014.35 1014.94 1015.44 1015.83 1016.09 1016.21 1016.22 1016.17 1016.11 1016.08 1016.12 1016.26 1016.50
1012.36 1012.17 1011.86 1011.44 1010.92 1010.31 1009.63 1008.91 1008.21 1007.56 1007.01 1006.61 1006.40 1006.39 1006.58 1006.97 1007.50 1008.13 1008.81 1009.48 1010.09 1010.63 1011.09 1011.48 1011.83 1012.16 1012.53 1012.95 1013.43 1013.97 1014.54 1015.10 1015.61 1016.03 1016.34 1016.52 1016.59 1016.58 1016.53 1016.50 1016.51 1016.61 1016.81 1017.11
1012.29 1011.96 1011.54 1011.03 1010.46 1009.83 1009.17 1008.50 1007.86 1007.28 1006.83 1006.53 1006.41 1006.49 1006.77 1007.23 1007.83 1008.53 1009.27 1009.99 1010.67 1011.27 1011.78 1012.23 1012.63 1013.01 1013.40 1013.83 1014.29 1014.78 1015.27 1015.74 1016.15 1016.48 1016.69 1016.80 1016.83 1016.79 1016.74 1016.73 1016.78 1016.93 1017.19 1017.53
1011.80 1011.35 1010.85 1010.29 1009.71 1009.11 1008.51 1007.93 1007.40 1006.96 1006.63 1006.45 1006.45 1006.63 1006.99 1007.52 1008.19 1008.93 1009.71 1010.48 1011.20 1011.86 1012.43 1012.92 1013.37 1013.78 1014.18 1014.59 1015.01 1015.44 1015.85 1016.22 1016.53 1016.76 1016.89 1016.93 1016.91 1016.85 1016.81 1016.81 1016.89 1017.08 1017.37 1017.75
1010.98 1010.48 1009.94 1009.39 1008.84 1008.32 1007.83 1007.38 1007.01 1006.72 1006.55 1006.51 1006.62 1006.90 1007.34 1007.92 1008.62 1009.39 1010.19 1010.98 1011.73 1012.41 1013.01 1013.54 1014.01 1014.43 1014.82 1015.21 1015.58 1015.93 1016.26 1016.54 1016.75 1016.89 1016.95 1016.94 1016.89 1016.82 1016.78 1016.80 1016.90 1017.10 1017.40 1017.79
1010.04 1009.53 1009.01 1008.52 1008.06 1007.66 1007.32 1007.05 1006.85 1006.74 1006.72 1006.82 1007.05 1007.41 1007.90 1008.51 1009.21 1009.97 1010.76 1011.54 1012.27 1012.95 1013.55 1014.08 1014.55 1014.96 1015.33 1015.66 1015.98 1016.27 1016.51 1016.72 1016.86 1016.94 1016.95 1016.92 1016.85 1016.78 1016.75 1016.78 1016.89 1017.09 1017.39 1017.76
1009.19 1008.73 1008.30 1007.91 1007.59 1007.35 1007.18 1007.09 1007.07 1007.13 1007.26 1007.48 1007.80 1008.21 1008.72 1009.32 1009.99 1010.71 1011.44 1012.17 1012.87 1013.51 1014.08 1014.58 1015.01 1015.38 1015.71 1016.00 1016.26 1016.48 1016.67 1016.82 1016.92 1016.97 1016.97 1016.93 1016.88 1016.83 1016.82 1016.86 1016.97 1017.17 1017.44 1017.77
Thickness
5795 5777 5766 5775 5780 5779 5778 5774 5773 5785 5802 5788 5776 5773 5776 5779 5774 5766 5760 5754 5748 5743 5742 5742 5739 5740 5737 5735 5732 5733 5733 5734 5735 5736 5735 5732 5730 5731 5732 5734 5734 5734 5734 5734
5773 5768 5787 5794 5795 5790 5784 5775 5776 5784 5795 5783 5771 5769 5773 5774 5770 5767 5761 5755 5749 5742 5739 5737 5736 5734 5734 5732 5731 5731 5730 5732 5734 5735 5735 5733 5731 5729 5731 5732 5731 5732 5732 5732
5764 5781 5797 5794 5790 5786 5785 5781 5781 5778 5780 5775 5766 5755 5758 5764 5767 5766 5765 5759 5752 5745 5739 5736 5733 5731 5730 5729 5729 5730 5729 5730 5731 5733 5732 5730 5728 5726 5726 5726 5727 5729 5730 5730
5773 5791 5791 5786 5785 5787 5774 5796 5795 5784 5763 5742 5749 5727 5743 5751 5753 5758 5756 5753 5750 5745 5741 5737 5734 5731 5729 5729 5729 5729 5728 5728 5729 5730 5730 5727 5724 5722 5723 5725 5726 5727 5728 5729
5772 5788 5784 5780 5789 5794 5787 5800 5791 5777 5755 5738 5736 5724 5730 5745 5743 5749 5753 5752 5749 5746 5743 5739 5736 5733 5731 5730 5728 5728 5726 5726 5727 5729 5729 5727 5725 5725 5724 5724 5724 5725 5726 5727
5783 5797 5794 5793 5802 5803 5801 5789 5773 5756 5740 5720 5724 5719 5721 5736 5743 5748 5752 5753 5750 5747 5744 5740 5737 5735 5732 5730 5727 5725 5725 5724 5726 5727 5728 5727 5725 5724 5722 5721 5721 5722 5723 5724
5767 5784 5798 5803 5789 5795 5791 5761 5733 5725 5713 5711 5723 5719 5725 5749 5757 5755 5753 5753 5752 5749 5744 5740 5736 5734 5731 5729 5726 5724 5723 5722 5724 5726 5727 5727 5726 5725 5723 5722 5721 5720 5720 5722
5745 5754 5787 5799 5791 5779 5781 5765 5731 5715 5709 5707 5716 5715 5737 5760 5764 5763 5761 5759 5755 5750 5746 5743 5740 5737 5734 5730 5728 5726 5724 5724 5725 5726 5726 5726 5726 5725 5724 5724 5723 5722 5722 5723
5750 5756 5795 5806 5809 5797 5777 5768 5764 5736 5724 5704 5708 5722 5743 5760 5759 5760 5759 5756 5753 5751 5748 5746 5743 5741 5737 5734 5730 5729 5727 5725 5725 5725 5725 5725 5725 5724 5724 5724 5724 5723 5723 5724
5768 5756 5781 5800 5804 5799 5790 5777 5753 5734 5713 5702 5706 5713 5723 5744 5749 5754 5754 5753 5753 5752 5750 5748 5746 5744 5742 5739 5735 5732 5730 5727 5726 5726 5726 5726 5725 5725 5725 5724 5723 5723 5723 5724
5773 5753 5765 5779 5777 5775 5778 5768 5753 5735 5727 5705 5694 5713 5752 5752 5756 5755 5754 5757 5756 5755 5753 5751 5748 5746 5743 5740 5736 5733 5730 5728 5727 5726 5726 5726 5725 5725 5724 5723 5723 5723 5722 5721
5769 5752 5743 5760 5783 5792 5781 5768 5754 5732 5725 5720 5709 5721 5767 5764 5763 5761 5759 5760 5759 5759 5757 5753 5751 5748 5744 5740 5737 5734 5732 5730 5729 5728 5726 5725 5725 5724 5723 5722 5722 5722 5720 5719
5764 5743 5727 5735 5752 5769 5769 5769 5760 5745 5729 5717 5710 5727 5764 5762 5761 5762 5762 5761 5759 5758 5757 5753 5750 5747 5745 5742 5740 5737 5734 5732 5731 5729 5726 5724 5723 5722 5721 5721 5721 5720 5719 5718
5766 5739 5730 5723 5734 5750 5755 5763 5760 5745 5725 5721 5728 5736 5748 5752 5754 5757 5760 5760 5757 5756 5755 5752 5749 5747 5746 5743 5740 5738 5735 5734 5732 5729 5726 5723 5722 5721 5720 5719 5718 5717 5716 5714
5747 5730 5734 5742 5754 5756 5758 5761 5762 5751 5743 5734 5739 5741 5747 5752 5755 5756 5758 5756 5753 5751 5751 5749 5747 5745 5744 5742 5739 5737 5734 5732 5730 5726 5723 5721 5721 5719 5717 5716 5714 5713 5712 5711
5730 5723 5726 5732 5747 5751 5752 5759 5762 5759 5756 5749 5746 5743 5756 5756 5754 5753 5753 5752 5748 5746 5746 5746 5745 5743 5741 5739 5737 5734 5731 5728 5725 5721 5718 5717 5715 5713 5711 5709 5708 5707 5706 5704
5716 5712 5709 5710 5728 5735 5729 5747 5753 5755 5760 5754 5742 5746 5751 5747 5745 5744 5745 5745 5742 5741 5740 5738 5737 5737 5735 5733 5731 5727 5725 5723 5719 5714 5712 5709 5707 5705 5704 5703 5700 5698 5697 5696
5707 5702 5695 5697 5707 5698 5727 5751 5755 5752 5752 5757 5755 5752 5749 5744 5739 5738 5739 5736 5734 5733 5731 5729 5729 5727 5726 5724 5722 5719 5716 5713 5709 5705 5703 5701 5699 5697 5695 5693 5691 5689 5689 5687
5706 5697 5687 5683 5685 5697 5724 5735 5735 5734 5732 5744 5744 5741 5738 5736 5730 5723 5726 5728 5726 5723 5721 5719 5718 5718 5716 5713 5712 5709 5704 5701 5698 5694 5692 5691 5689 5686 5683 5681 5678 5678 5677 5674
5694 5691 5681 5676 5677 5680 5706 5726 5735 5732 5716 5734 5739 5736 5733 5730 5712 5707 5713 5715 5714 5712 5711 5709 5707 5706 5702 5699 5699 5696 5691 5688 5685 5683 5682 5680 5677 5675 5672 5669 5668 5667 5665 5662
5672 5672 5671 5669 5669 5683 5704 5719 5726 5705 5710 5727 5731 5730 5727 5720 5714 5707 5706 5704 5703 5701 5698 5697 5695 5692 5688 5687 5687 5683 5679 5675 5673 5672 5671 5668 5666 5664 5661 5659 5656 5654 5652 5649
5657 5659 5661 5663 5660 5670 5701 5707 5706 5708 5718 5720 5720 5719 5715 5710 5705 5699 5696 5693 5692 5689 5687 5686 5684 5680 5677 5676 5676 5671 5665 5663 5662 5661 5659 5656 5655 5654 5652 5648 5645 5642 5639 5635
5653 5657 5659 5662 5667 5682 5693 5699 5707 5711 5710 5710 5710 5706 5703 5698 5693 5690 5685 5682 5680 5678 5676 5674 5672 5668 5664 5663 5662 5658 5654 5652 5650 5648 5646 5644 5643 5641 5639 5635 5631 5628 5625 5621
5655 5660 5657 5659 5667 5677 5687 5695 5700 5704 5703 5703 5703 5699 5694 5687 5682 5677 5674 5671 5668 5667 5665 5663 5661 5657 5652 5650 5649 5646 5644 5641 5638 5635 5632 5631 5629 5627 5625 5623 5620 5616 5612 5609
5653 5656 5655 5657 5666 5671 5678 5683 5688 5693 5695 5694 5692 5690 5687 5680 5674 5669 5665 5661 5659 5657 5655 5653 5650 5646 5641 5639 5636 5634 5633 5630 5626 5622 5620 5617 5615 5613 5611 5608 5606 5603 5600 5597
5655 5654 5654 5657 5666 5666 5669 5677 5682 5684 5681 5681 5679 5677 5674 5670 5664 5660 5656 5653 5651 5648 5645 5642 5638 5634 5631 5628 5625 5622 5620 5618 5613 5609 5606 5604 5602 5599 5597 5594 5590 5588 5586 5583